sat.trackr.live / text

‹ back to catalog

STARLINK-35017

NORAD 65292 · 2025-184V

PAYLOAD ACTIVE UNKNOWN

§ Identity

Operator
Country
US
Launch date
2025-08-22
Launch site
AFWTR
Launch vehicle
Mass (kg)
RCS (m²)

Purposes: comms

External: N2YO · Heavens-Above · Gunter

§ Orbital elements

Epoch: 2026-09-20T09:49:04.115424Z

Period
93.91 min
Inclination
97.2836°
Eccentricity
0.0001389
Mean motion
15.33438954 rev/d
Perigee alt
464.6 km
Apogee alt
466.5 km
Semi-major
6,843.7 km
B*
4.5449e-4
RAAN
311.4278°
Arg perigee
90.6771°
Mean anomaly
269.4630°
Rev number
6,066

§ Raw data

STARLINK-350171 65292U 25184V   26263.40907541  .00014623  00000+0  45449-3 0  99972 65292  97.2836 311.4278 0001389  90.6771 269.4630 15.33438954 60661

JSON: /api/v1/satellites/65292 · /tle

For live sub-satellite position, see the globe view (requires WebGL).

§ Visibility from observer

Set your observer location to see the next 7 days of passes ≥ 10°. The values pass through the URL so the page stays shareable.

No JS? Fill the form by hand. The geolocation button needs JavaScript.